Location: *
(43.2048°N, 0.1612°E)
Time: 20:52:45
(UTC+00:00)

ATLAS 3B R/B - Pass Details

Date: 30 September 2023
Orbit: 954 x 1241 km, 63.8° (Epoch: 01 December)

Event Time Altitude Azimuth Distance (km) Brightness Sun altitude
Rises 02:27:01 0° 325° (NW) 4,117 5.8 -36.5°
Reaches altitude 10° 02:29:52 10° 330° (NNW) 3,176 5.2 -36.1°
Maximum altitude 02:37:22 51° 46° (NE) 1,517 3.6 -35.0°
Drops below altitude 10° 02:44:54 10° 121° (ESE) 3,194 5.4 -33.9°
Sets 02:47:45 0° 126° (SE) 4,142 6.0 -33.4°
